Regional Weather Roundup
Issued by NWS Sterling, VA

Home | Current Version | Previous Version | Graphics & Text | Print | Product List | Glossary On
Versions: 1 2 3 4 5 6 7 8 9 10 11 12 13 14 15 16 17 18 19 20 21 22 23 24 25 26 27
000
ASUS41 KLWX 232110
RWRLWX

REGIONAL WEATHER ROUNDUP
NATIONAL WEATHER SERVICE BALTIMORE MD/WASHINGTON DC
500 PM EDT THU MAR 23 2017

Note: "FAIR" indicates few or no clouds below 12,000 feet
with no significant weather and/or obstructions to visibility.
 TC=TEMPERATURE CELSIUS

 * =Non NWS site. Station does not report precipitation (e.g. rain,
    snow, etc.), thunder, or fog.

DCZ001-MDZ009-015-VAZ040>042-051-053>054-232200-
WASHINGTON METRO

CITY           SKY/WX    TMP DP  RH WIND       PRES   REMARKS
WASHINGTON NAT MOSUNNY   47   5  18 E6        30.55F
DULLES         MOSUNNY   48   5  17 VRB7      30.52F
ANDREWS AFB    SUNNY     46   2  16 VRB3      30.52F
FT BELVOIR     SUNNY     47   7  19 CALM      30.54F
QUANTICO       MOSUNNY   47  21  35 S9        30.56F
COLLEGE PARK*  SUNNY     45   5  19 SE3       30.53F
LEESBURG*      SUNNY     50  14  23 S7        30.52F
MANASSAS*      SUNNY     49   9  19 SW8       30.53F
GAITHERSBURG*  SUNNY     46   5  18 SW7       30.55F

$$

MDZ006>007-011-014-232200-
BALTIMORE METRO

CITY           SKY/WX    TMP DP  RH WIND       PRES   REMARKS
BWI AIRPORT    MOSUNNY   48   5  17 VRB6      30.53F
MD SCIENCE CTR   N/A     44  15  31 MISG      30.53F
MARTIN STATE   MOSUNNY   45  19  36 SE12      30.56F
ANNAPOLIS      SUNNY     41  20  43 SE12      30.56F
FORT MEADE*    SUNNY     46   3  17 W3        30.55F

$$

MDZ012-015-019>023-232200-
MARYLAND EASTERN SHORE

CITY           SKY/WX    TMP DP  RH WIND       PRES   REMARKS
OCEAN CITY     SUNNY     36  19  50 SE6       30.58F
SALISBURY      SUNNY     46   5  18 W6        30.56F
BAY BRIDGE AP* SUNNY     45  10  24 S7        30.56F
CAMBRIDGE*     SUNNY     41   1  19 NW5       30.57F
EASTON*        SUNNY     45  -2  14 CALM      30.60F

$$

MDZ017>025-232200-
SOUTHERN MARYLAND

CITY           SKY/WX    TMP DP  RH WIND       PRES   REMARKS
PATUXENT RIVER MOSUNNY   40  19  43 SE10      30.57F
ST INIGOES     SUNNY     42  15  33 E6        30.56F
LEONARDTOWN*   SUNNY     43  16  33 NE6       30.57F

$$

MDZ003>005-232200-
NORTH CENTRAL MARYLAND

CITY           SKY/WX    TMP DP  RH WIND       PRES   REMARKS
FREDERICK*     SUNNY     48  12  23 SW6       30.55F
HAGERSTOWN APT SUNNY     45   5  19 S6        30.49F
WESTMINSTER*   SUNNY     46   9  21 W6        30.50F

$$

MDZ501>502-232200-
WESTERN MARYLAND

CITY           SKY/WX    TMP DP  RH WIND       PRES   REMARKS
OAKLAND*       SUNNY     43  12  28 SE10      30.35F
CUMBERLAND*    SUNNY     52   9  17 SE5       30.48F

$$

VAZ025>031-232200-
SHENANDOAH VALLEY

CITY           SKY/WX    TMP DP  RH WIND       PRES   REMARKS
WINCHESTER*    SUNNY     46  12  25 CALM      30.48F
FRONT ROYAL*   SUNNY     50  14  23 E3        30.46F
LURAY*         SUNNY     52  19  28 S5        30.46F
NEW MARKET*    SUNNY     50  11  21 SW9       30.45F
STAUNTON*      SUNNY     49  14  24 SE10      30.48F
WAYNESBORO*    SUNNY     48  14  25 SE6       30.46F

$$

WVZ021-048>050-054>055-232200-
EASTERN WEST VIRGINIA PANHANDLE

CITY           SKY/WX    TMP DP  RH WIND       PRES   REMARKS
MARTINSBURG    SUNNY     48   5  17 S5        30.49F
PETERSBURG*    SUNNY     54  16  22 SE5       30.42F

$$

VAZ036>039-050-232200-
CENTRAL FOOTHILLS

CITY           SKY/WX    TMP DP  RH WIND       PRES   REMARKS
CHARLOTTESVILL SUNNY     51  12  21 CALM      30.50F
CULPEPER*      SUNNY     50  10  20 CALM      30.53F
ORANGE*        SUNNY     48  10  21 CALM      30.52F
GORDONSVILLE*  SUNNY     49  12  22 CALM      30.51F
WARRENTON*     SUNNY     51  -6   9 CALM      30.51F

$$

VAZ055>057-232200-
NORTH AND CENTRAL PIEDMONT

CITY           SKY/WX    TMP DP  RH WIND       PRES   REMARKS
FREDERICKSBRG* SUNNY     50  14  23 SE3       30.53F
STAFFORD*      SUNNY     48   8  19 SW3       30.57F

$$

NCZ024-NYZ072-PAZ021-071-VAZ022-071-232200-
OTHER REGIONAL OBSERVATIONS

CITY           SKY/WX    TMP DP  RH WIND       PRES   REMARKS
NEW YORK CITY  SUNNY     42  -2  15 VRB6      30.53F
PHILADELPHIA   MOSUNNY   45   7  21 SW12      30.53F
PITTSBURGH     MOSUNNY   48  -3  12 S7        30.39F
ROANOKE        MOSUNNY   52  15  23 SE8       30.49F
RICHMOND       MOSUNNY   49  13  23 S8        30.54F
RALEIGH        MOSUNNY   55  16  21 VRB5      30.53F

$$

ANZ530>537-232200-
MARINE OBSERVATIONS

STATION/POSITION TIME  TEMP    WIND        PRES
                       AIR SEA DIR/SP/G
                 (UTC) (F)     (DEG/KT/KT) (MB)
THOMAS PT LIGHT  2100   39 44  140/  6/  7   N/A
BALT KEY BRIDGE  2048   39     130/ 11/ 13 1034.4F
COVE POINT       2048   37     180/ 10/ 11 1035.8F
LEWISETTA        2048   38 47  130/ 10/ 12 1035.2F
SOLOMONS ISLAND  2048   39 45  110/  9/ 10   N/A
PINEY POINT      2042          160/  6/  7   N/A

$$





USA.gov is the U.S. government's official web portal to all federal, state and local government web resources and services.